PAA115 LFPO-KMIA

Flight info

Callsign PAA115
Flight time N/A
Altitude 30000
Route LGL UN502 ARGED DCT SENLO DCT JSY DCT LIZAD DCT LESLU DCT MALOT/M083F320 DCT 5420N DCT 5430N DCT 5440N DCT 5350N DCT RIKAL/N0481F320 N572A TOPPS/N0471F360 DCT BEEKN Q97 KALDA DCT BGBRD Q101 PRANK/N0474F380 Q101 SKARP Y313 HOAGG DCT ZBV FOWEE2
Aircraft L101/H-SDFGHIRWXY/S

Departure

Time 2026-05-05 12:25
Airport Paris-Orly Airport (LFPO)

Arrival

Time N/A
Airport Miami International Airport (KMIA)
Time Latitude Longitude Altitude Speed Heading
2026-05-05 11:18 48.72609 2.36270 300 ft 0 kts 344°
2026-05-05 12:14 48.72593 2.36277 290 ft 4 kts 344°
2026-05-05 12:15 48.72567 2.36288 290 ft 3 kts 344°
2026-05-05 12:15 48.72546 2.36299 294 ft 4 kts 323°
2026-05-05 12:15 48.72530 2.36328 295 ft 4 kts 281°
2026-05-05 12:15 48.72530 2.36360 294 ft 1 kts 255°
2026-05-05 12:16 48.72531 2.36365 290 ft 0 kts 255°
2026-05-05 12:20 48.72529 2.36351 292 ft 2 kts 255°
2026-05-05 12:20 48.72523 2.36322 294 ft 4 kts 255°
2026-05-05 12:20 48.72514 2.36271 294 ft 7 kts 255°
2026-05-05 12:21 48.72499 2.36186 293 ft 10 kts 255°
2026-05-05 12:21 48.72478 2.36068 293 ft 13 kts 257°
2026-05-05 12:21 48.72469 2.35917 290 ft 15 kts 276°
2026-05-05 12:21 48.72476 2.35764 292 ft 14 kts 263°
2026-05-05 12:22 48.72446 2.35642 290 ft 11 kts 223°
2026-05-05 12:22 48.72380 2.35632 290 ft 9 kts 174°
2026-05-05 12:22 48.72323 2.35620 290 ft 8 kts 193°
2026-05-05 12:22 48.72277 2.35603 295 ft 6 kts 193°
2026-05-05 12:23 48.72235 2.35601 290 ft 7 kts 169°
2026-05-05 12:23 48.72187 2.35619 291 ft 8 kts 166°
2026-05-05 12:23 48.72131 2.35641 290 ft 9 kts 166°
2026-05-05 12:23 48.72070 2.35682 293 ft 10 kts 144°
2026-05-05 12:24 48.72022 2.35769 293 ft 11 kts 121°
2026-05-05 12:24 48.71979 2.35873 294 ft 12 kts 125°
2026-05-05 12:24 48.71965 2.35983 293 ft 11 kts 77°
2026-05-05 12:24 48.71989 2.36123 294 ft 26 kts 75°
2026-05-05 12:25 48.72097 2.36706 294 ft 89 kts 74°
2026-05-05 12:25 48.72318 2.37897 290 ft 143 kts 74°
2026-05-05 12:25 48.72591 2.39487 673 ft 156 kts 74°
2026-05-05 12:25 48.72837 2.41113 1294 ft 164 kts 72°
2026-05-05 12:26 48.73099 2.42869 1735 ft 183 kts 75°
2026-05-05 12:26 48.73380 2.44843 2199 ft 206 kts 74°
2026-05-05 12:26 48.73712 2.47124 2600 ft 235 kts 75°
2026-05-05 12:26 48.74109 2.49678 2478 ft 264 kts 73°
2026-05-05 12:27 48.74581 2.52279 2379 ft 252 kts 72°
2026-05-05 12:27 48.75071 2.54973 2373 ft 273 kts 72°
2026-05-05 12:27 48.75564 2.57738 2998 ft 265 kts 76°
2026-05-05 12:27 48.75571 2.60379 4245 ft 235 kts 96°
2026-05-05 12:28 48.75025 2.62619 5208 ft 225 kts 119°
2026-05-05 12:28 48.74332 2.63850 5399 ft 235 kts 139°
2026-05-05 12:28 48.72807 2.64942 5540 ft 259 kts 168°
2026-05-05 12:28 48.70964 2.64856 5759 ft 273 kts 194°
2026-05-05 12:29 48.69273 2.63568 5908 ft 276 kts 220°
2026-05-05 12:29 48.68089 2.61302 6026 ft 276 kts 246°
2026-05-05 12:29 48.67582 2.58527 6232 ft 275 kts 263°
2026-05-05 12:29 48.67421 2.55613 6432 ft 282 kts 269°
2026-05-05 12:30 48.67376 2.52561 6789 ft 296 kts 268°
2026-05-05 12:30 48.67108 2.49518 7676 ft 290 kts 253°
2026-05-05 12:30 48.66501 2.46583 8185 ft 299 kts 258°
2026-05-05 12:30 48.66226 2.43465 8882 ft 299 kts 269°
2026-05-05 12:31 48.66245 2.40315 9651 ft 298 kts 275°
2026-05-05 12:31 48.66414 2.37147 10168 ft 309 kts 277°
2026-05-05 12:31 48.66652 2.33809 10327 ft 330 kts 278°
2026-05-05 12:31 48.66933 2.30252 10422 ft 351 kts 278°
2026-05-05 12:32 48.67240 2.26479 10521 ft 371 kts 278°
2026-05-05 12:32 48.67557 2.22516 10671 ft 386 kts 278°
2026-05-05 12:32 48.67870 2.18469 11275 ft 387 kts 277°
2026-05-05 12:32 48.68180 2.14402 11759 ft 391 kts 277°
2026-05-05 12:33 48.68491 2.10297 12327 ft 393 kts 277°
2026-05-05 12:33 48.68796 2.06164 12929 ft 396 kts 277°
2026-05-05 12:33 48.69100 2.02000 13516 ft 399 kts 277°
2026-05-05 12:33 48.69343 1.97783 13927 ft 405 kts 271°
2026-05-05 12:34 48.69095 1.93539 14395 ft 410 kts 254°
2026-05-05 12:34 48.67833 1.89676 14773 ft 413 kts 227°
2026-05-05 12:34 48.65747 1.86737 15504 ft 404 kts 225°
2026-05-05 12:34 48.64116 1.83348 16374 ft 401 kts 243°
2026-05-05 12:35 48.63247 1.79292 16625 ft 415 kts 261°
2026-05-05 12:35 48.63177 1.74893 17038 ft 421 kts 275°
2026-05-05 12:35 48.72609 2.36270 17278 ft 10 kts 344°